Walhalla, ND

3:02 AM CDT on June 29, 2017 (GMT -0500)
Walhalla

Weather History for K96D - March, 2013

Change the Weather History Date:

Saturday, March 2, 2013

  Actual Average (KGAF) Record (KGAF)
Temperature  
Mean Temperature 15 °F -  
Max Temperature 24 °F 26 °F 42 °F (1964)
Min Temperature 6 °F 7 °F -35 °F (1972)
Degree Days  
Heating Degree Days 50    
Moisture  
Dew Point 17 °F    
Average Humidity 94    
Maximum Humidity 100    
Minimum Humidity 80    
Precipitation  
Precipitation 0.00 in - - ()
Sea Level Pressure  
Sea Level Pressure 30.13 in    
Wind  
Wind Speed 8 mph (SSE)    
Max Wind Speed 16 mph    
Max Gust Speed 16 mph    
Visibility 10 miles    
Events      
Averages and records for this station are not official NWS values.
T = Trace of Precipitation, MM = Missing Value Source: NWS Daily Summary

Daily Weather History Graph

Daily Weather History Graph

Search for Another Location

Airport or City:

Trip Planner

Search our weather history database for the weather conditions in past years. The results will help you decide how hot, cold, wet, or windy it might be!

Date:

Astronomy

Mar. 02, 2013 Rise Set
Actual Time 7:11 AM CST 6:17 PM CST
Civil Twilight 6:39 AM CST 6:48 PM CST
Nautical Twilight 6:02 AM CST 7:25 PM CST
Astronomical Twilight 5:26 AM CST 8:02 PM CST
Moon No Moon Rise 9:09 AM CST (3/2)
Length of Visible Light 12h 09m
Length of Day
11h 06m
Waning Gibbous, 74% of the Moon is Illuminated
Mar 2
Waning Gibbous
Mar 4
Last Quarter
Mar 11
New
Mar 19
First Quarter
Mar 27
Full

Hourly Weather History & Observations

Time (CST) Temp. Windchill Dew Point Humidity Pressure Visibility Wind Dir Wind Speed Gust Speed Precip Events Conditions
12:15 AM 10.4 °F 2.2 °F 10.4 °F 100% 30.29 in 10.0 mi SSE 4.6 mph - N/A   Mostly Cloudy
12:35 AM 8.6 °F -1.3 °F 8.6 °F 100% 30.29 in 10.0 mi SSW 5.8 mph - N/A   Scattered Clouds
1:15 AM 10.4 °F 0.8 °F 10.4 °F 100% 30.27 in - South 5.8 mph - N/A   Unknown
1:35 AM 14.0 °F 3.9 °F 12.2 °F 93% 30.27 in - South 6.9 mph - N/A   Unknown
1:55 AM 12.2 °F 2.9 °F 12.2 °F 100% 30.27 in - South 5.8 mph - N/A   Overcast
2:15 AM 12.2 °F 2.9 °F 12.2 °F 100% 30.25 in - South 5.8 mph - N/A   Overcast
2:35 AM 12.2 °F 6.1 °F 12.2 °F 100% 30.25 in - South 3.5 mph - N/A   Overcast
2:55 AM 10.4 °F 2.2 °F 10.4 °F 100% 30.25 in - South 4.6 mph - N/A   Overcast
3:15 AM 10.4 °F 4.0 °F 10.4 °F 100% 30.25 in - South 3.5 mph - N/A   Overcast
3:35 AM 10.4 °F 4.0 °F 10.4 °F 100% 30.24 in - South 3.5 mph - N/A   Overcast
3:55 AM 10.4 °F 2.2 °F 10.4 °F 100% 30.23 in - ESE 4.6 mph - N/A   Mostly Cloudy
4:15 AM 8.6 °F -2.6 °F 8.6 °F 100% 30.22 in 10.0 mi SE 6.9 mph - N/A   Mostly Cloudy
4:35 AM 8.6 °F -2.6 °F 8.6 °F 100% 30.21 in 10.0 mi East 6.9 mph - N/A   Overcast
5:15 AM 6.8 °F -3.5 °F 6.8 °F 100% 30.19 in 10.0 mi East 5.8 mph - N/A   Overcast
5:35 AM 8.6 °F 0.1 °F 8.6 °F 100% 30.20 in 10.0 mi East 4.6 mph - N/A   Overcast
6:15 AM 8.6 °F -1.3 °F 8.6 °F 100% 30.20 in 10.0 mi SSE 5.8 mph - N/A   Overcast
6:35 AM 10.4 °F -0.4 °F 10.4 °F 100% 30.19 in 10.0 mi SSE 6.9 mph - N/A   Overcast
6:55 AM 14.0 °F 2.9 °F 10.4 °F 86% 30.18 in 10.0 mi SE 8.1 mph - N/A   Overcast
7:15 AM 14.0 °F 0.5 °F 12.2 °F 93% 30.16 in 10.0 mi SSE 11.5 mph - N/A   Overcast
7:35 AM 14.0 °F -1.4 °F 12.2 °F 93% 30.16 in 10.0 mi SSE 15.0 mph - N/A   Overcast
7:55 AM 14.0 °F 0.5 °F 14.0 °F 100% 30.16 in 10.0 mi SSE 11.5 mph - N/A   Overcast
8:15 AM 14.0 °F 2.0 °F 14.0 °F 100% 30.17 in 10.0 mi SSE 9.2 mph - N/A   Overcast
8:35 AM 14.0 °F 2.0 °F 14.0 °F 100% 30.16 in 10.0 mi SSE 9.2 mph - N/A   Overcast
8:55 AM 15.8 °F 3.4 °F 14.0 °F 93% 30.16 in 10.0 mi SSE 10.4 mph - N/A   Overcast
9:15 AM 15.8 °F 0.9 °F 14.0 °F 93% 30.15 in 10.0 mi SSE 15.0 mph - N/A   Overcast
9:35 AM 17.6 °F 5.7 °F 14.0 °F 86% 30.14 in 10.0 mi SSE 10.4 mph 16.1 mph N/A   Overcast
9:55 AM 17.6 °F 5.0 °F 14.0 °F 86% 30.14 in 10.0 mi SSE 11.5 mph 16.1 mph N/A   Overcast
10:15 AM 17.6 °F 2.7 °F 14.0 °F 86% 30.13 in 10.0 mi SSE 16.1 mph - N/A   Mostly Cloudy
10:35 AM 17.6 °F 8.2 °F 14.0 °F 86% 30.14 in 10.0 mi SE 6.9 mph - N/A   Overcast
10:55 AM 17.6 °F 9.3 °F 15.8 °F 93% 30.14 in 10.0 mi South 5.8 mph - N/A   Overcast
11:15 AM 17.6 °F 9.3 °F 15.8 °F 93% 30.12 in - South 5.8 mph - N/A   Overcast
11:35 AM 19.4 °F 9.5 °F 15.8 °F 86% 30.12 in 10.0 mi SSE 8.1 mph - N/A   Mostly Cloudy
11:55 AM 19.4 °F 8.6 °F 15.8 °F 86% 30.11 in - South 9.2 mph - N/A   Unknown
12:15 PM 21.2 °F 9.5 °F 17.6 °F 86% 30.11 in - SSE 11.5 mph - N/A   Overcast
12:35 PM 23.0 °F 13.1 °F 17.6 °F 80% 30.10 in 10.0 mi SE 9.2 mph - N/A   Overcast
12:55 PM 23.0 °F 11.7 °F 17.6 °F 80% 30.10 in 10.0 mi ESE 11.5 mph - N/A   Overcast
1:15 PM 23.0 °F 12.4 °F 19.4 °F 86% 30.11 in 10.0 mi ESE 10.4 mph - N/A   Overcast
1:35 PM 23.0 °F 11.7 °F 19.4 °F 86% 30.09 in 10.0 mi SSE 11.5 mph - N/A   Mostly Cloudy
1:55 PM 24.8 °F 14.6 °F 19.4 °F 80% 30.08 in 10.0 mi SE 10.4 mph - N/A   Clear
2:15 PM 24.8 °F 14.6 °F 21.2 °F 86% 30.09 in 10.0 mi SE 10.4 mph - N/A   Mostly Cloudy
2:35 PM 24.8 °F 12.9 °F 23.0 °F 93% 30.09 in 10.0 mi SE 13.8 mph - N/A   Overcast
2:55 PM 24.8 °F 14.0 °F 23.0 °F 93% 30.08 in 10.0 mi SSE 11.5 mph - N/A   Overcast
3:15 PM 24.8 °F 15.3 °F 23.0 °F 93% 30.08 in 10.0 mi SSE 9.2 mph - N/A   Overcast
3:35 PM 24.8 °F 12.9 °F 23.0 °F 93% 30.08 in 10.0 mi SSE 13.8 mph - N/A   Overcast
3:55 PM 24.8 °F 14.0 °F 23.0 °F 93% 30.07 in 10.0 mi SSE 11.5 mph - N/A   Overcast
4:15 PM 24.8 °F 13.4 °F 23.0 °F 93% 30.08 in 10.0 mi SE 12.7 mph - N/A   Overcast
4:35 PM 24.8 °F 14.6 °F 23.0 °F 93% 30.08 in 10.0 mi SSE 10.4 mph - N/A   Overcast
4:55 PM 24.8 °F 13.4 °F 23.0 °F 93% 30.08 in 10.0 mi SSE 12.7 mph - N/A   Overcast
5:15 PM 24.8 °F 15.3 °F 23.0 °F 93% 30.08 in 10.0 mi SSE 9.2 mph - N/A   Overcast
5:35 PM 24.8 °F 15.3 °F 23.0 °F 93% 30.07 in 10.0 mi South 9.2 mph - N/A   Overcast
5:55 PM 24.8 °F 15.3 °F 23.0 °F 93% 30.07 in 10.0 mi SSE 9.2 mph - N/A   Overcast
6:15 PM 24.8 °F 16.1 °F 23.0 °F 93% 30.07 in 10.0 mi South 8.1 mph - N/A   Overcast
6:35 PM 24.8 °F 15.3 °F 23.0 °F 93% 30.08 in 10.0 mi SSE 9.2 mph - N/A   Overcast
6:55 PM 24.8 °F 16.1 °F 23.0 °F 93% 30.08 in 10.0 mi South 8.1 mph - N/A   Overcast
7:15 PM 24.8 °F 16.9 °F 23.0 °F 93% 30.08 in 10.0 mi SSE 6.9 mph - N/A   Overcast
7:35 PM 24.8 °F 15.3 °F 23.0 °F 93% 30.07 in 10.0 mi South 9.2 mph - N/A   Overcast
7:55 PM 24.8 °F 15.3 °F 23.0 °F 93% 30.07 in 10.0 mi SSE 9.2 mph - N/A   Overcast
8:15 PM 24.8 °F 16.1 °F 23.0 °F 93% 30.07 in 10.0 mi SE 8.1 mph - N/A   Overcast
8:35 PM 23.0 °F 13.9 °F 23.0 °F 100% 30.07 in 10.0 mi SSE 8.1 mph - N/A   Overcast
8:55 PM 23.0 °F 13.9 °F 23.0 °F 100% 30.06 in 10.0 mi SSE 8.1 mph - N/A   Mostly Cloudy
9:15 PM 23.0 °F 14.7 °F 23.0 °F 100% 30.06 in 10.0 mi SSE 6.9 mph - N/A   Mostly Cloudy
9:35 PM 23.0 °F 15.8 °F 23.0 °F 100% 30.05 in 10.0 mi SSE 5.8 mph - N/A   Overcast
9:55 PM 23.0 °F 13.9 °F 23.0 °F 100% 30.05 in 10.0 mi South 8.1 mph - N/A   Overcast
10:15 PM 23.0 °F 14.7 °F 23.0 °F 100% 30.04 in 10.0 mi South 6.9 mph - N/A   Overcast
10:35 PM 23.0 °F 13.9 °F 23.0 °F 100% 30.04 in 10.0 mi South 8.1 mph - N/A   Overcast
10:55 PM 23.0 °F 13.9 °F 23.0 °F 100% 30.03 in 10.0 mi SSW 8.1 mph - N/A   Overcast
11:15 PM 24.8 °F 16.9 °F 23.0 °F 93% 30.03 in 10.0 mi SSW 6.9 mph - N/A   Overcast
11:35 PM 24.8 °F 17.9 °F 24.8 °F 100% 30.02 in 10.0 mi SW 5.8 mph - N/A   Overcast
11:55 PM 24.8 °F 19.1 °F 24.8 °F 100% 30.02 in 10.0 mi SW 4.6 mph - N/A   Overcast